FW1090 Weather Reports


time (UTC)temp
C
wind
direction
speed
KPH
gust
KPH
rain 1hr
cm
rain 24hr
cm
rain mn
cm
humidity
%
barometer
mb
20260503193053 23 288 0.0 0.0 0.00 0.00 0.00 68 996.2
20260503191549 23 280 0.0 1.6 0.00 0.00 0.00 70 996.3
20260503190047 23 301 0.0 0.0 0.00 0.00 0.00 67 996.4
20260503184555 23 23 0.0 0.0 0.00 0.00 0.00 65 996.5
20260503183053 23 254 0.0 1.6 0.00 0.00 0.00 72 996.8
20260503181538 22 343 0.0 6.4 0.00 0.00 0.00 73 996.8
20260503180035 22 7 0.0 3.2 0.00 0.00 0.00 70 997.0
20260503174531 21 325 0.0 8.0 0.00 0.00 0.00 72 996.9
20260503173029 21 298 0.0 0.0 0.00 0.00 0.00 73 997.0
20260503171526 20 267 0.0 0.0 0.00 0.00 0.00 76 997.0
20260503081522 11 68 0.0 0.0 0.00 0.00 0.00 94 997.8
20260503071510 12 122 0.0 0.0 0.00 0.00 0.00 93 997.7
20260503054512 13 117 0.0 0.0 0.00 0.00 0.00 91 997.6
20260503053005 13 117 0.0 0.0 0.00 0.00 0.00 90 997.5
20260503051503 14 117 0.0 0.0 0.00 0.00 0.00 89 997.6
20260503050008 15 131 0.0 0.0 0.00 0.00 0.00 89 997.4
20260503044504 15 132 0.0 0.0 0.00 0.00 0.00 88 997.4
20260503043002 15 173 0.0 0.0 0.00 0.00 0.00 86 997.3
20260503041507 16 172 0.0 0.0 0.00 0.00 0.00 83 997.0
20260503040001 17 173 0.0 0.0 0.00 0.00 0.00 79 996.9
20260503034502 18 316 0.0 0.0 0.00 0.00 0.00 75 996.7
20260503033000 19 235 0.0 0.0 0.00 0.00 0.00 75 996.4
20260503031602 20 235 0.0 0.0 0.00 0.00 0.00 71 996.3
20260503030110 22 264 0.0 0.0 0.00 0.00 0.00 65 996.1
20260503024623 22 302 0.0 0.0 0.00 0.00 0.00 65 996.1
20260503023107 23 243 0.0 0.0 0.00 0.00 0.00 64 996.0
20260503021604 23 256 0.0 3.2 0.00 0.00 0.00 65 996.0
20260503020057 23 295 0.0 6.4 0.00 0.00 0.00 62 996.0
20260503014559 23 253 0.0 0.0 0.00 0.00 0.00 62 995.9
20260503013056 23 321 0.0 1.6 0.00 0.00 0.00 63 995.9
20260503011600 23 269 0.0 0.0 0.00 0.00 0.00 65 995.9
20260503010054 24 281 0.0 0.0 0.00 0.00 0.00 65 996.0
20260503004554 24 316 0.0 0.0 0.00 0.00 0.00 66 996.1
20260503003050 23 311 0.0 0.0 0.00 0.00 0.00 63 996.2
20260503001559 24 20 0.0 14.5 0.00 0.00 0.00 65 996.3
20260503000103 23 294 1.6 12.9 0.00 0.00 0.00 67 996.4
20260502234552 23 222 0.0 9.7 0.00 0.00 0.00 68 996.2
20260502233059 23 290 0.0 9.7 0.00 0.00 0.00 69 996.5
20260502231557 23 267 1.6 11.3 0.00 0.00 0.00 67 996.7
20260502230036 22 269 0.0 1.6 0.00 0.00 0.00 71 996.9
20260502224534 22 305 0.0 0.0 0.00 0.00 0.00 72 997.1
20260502223037 22 284 0.0 0.0 0.00 0.00 0.00 69 997.3
20260502221532 22 243 0.0 0.0 0.00 0.00 0.00 73 997.5
20260502220036 21 210 0.0 9.7 0.00 0.00 0.00 73 997.7
20260502214527 21 248 0.0 6.4 0.00 0.00 0.00 72 997.8
20260502213026 21 249 1.6 11.3 0.00 0.00 0.00 73 997.9
20260502211533 21 323 0.0 4.8 0.00 0.00 0.00 75 998.0
20260502210019 20 245 0.0 1.6 0.00 0.00 0.00 73 998.1
20260502204519 20 269 0.0 0.0 0.00 0.00 0.00 77 998.2
20260502203018 20 231 0.0 0.0 0.00 0.00 0.00 75 998.3
20260502201517 20 251 0.0 0.0 0.00 0.00 0.00 74 998.5
20260502200013 19 236 0.0 0.0 0.00 0.00 0.00 75 998.6
20260502194510 18 240 0.0 0.0 0.00 0.00 0.00 79 998.7